Satellite: NOAA-16
Catalog number: 26536
Epoch time:      11173.53080197
Element set:     341
Inclination:      099.1387 deg
RA of node:       204.1814 deg
Eccentricity:    0.0010770
Arg of perigee:   022.6949 deg
Mean anomaly:     337.4696 deg
Mean motion:   14.12624718 rev/day
Decay rate:      -2.43e-06 rev/day^2
Epoch rev:           55411
Checksum:              297

Satellite: NOAA-17
Catalog number: 27453
Epoch time:      11173.44507397
Element set:     330
Inclination:      098.3779 deg
RA of node:       212.9143 deg
Eccentricity:    0.0012540
Arg of perigee:   130.9044 deg
Mean anomaly:     229.3237 deg
Mean motion:   14.24283886 rev/day
Decay rate:       -6.0e-08 rev/day^2
Epoch rev:           46740
Checksum:              299

Satellite: NOAA-18
Catalog number: 28654
Epoch time:      11173.41655203
Element set:     810
Inclination:      098.9960 deg
RA of node:       124.5763 deg
Eccentricity:    0.0015252
Arg of perigee:   089.6572 deg
Mean anomaly:     270.6335 deg
Mean motion:   14.11487098 rev/day
Decay rate:       4.52e-06 rev/day^2
Epoch rev:           31366
Checksum:              312

Satellite: NOAA-19
Catalog number: 33591
Epoch time:      11173.41487868
Element set:       1
Inclination:      098.8261 deg
RA of node:       113.4816 deg
Eccentricity:    0.0013798
Arg of perigee:   325.6694 deg
Mean anomaly:     034.3582 deg
Mean motion:   14.11175692 rev/day
Decay rate:       -7.1e-07 rev/day^2
Epoch rev:           12212
Checksum:              302

/EX
SB KEPS @ AMSAT  $ORB11181.M
Orbital Elements  11181.MISC

HR AMSAT ORBITAL ELEMENTS FOR MANNED AND MISCELLANEOUS SATELLITES
FROM WA5QGD FORT WORTH,TX June 30, 2011
Send Subscribe/unsubscribe to KEPS at http://www.amsat.org/mailman/listinfo/kep
BID: ORB11181.M
TO ALL RADIO AMATEURS BT

Satellite: HUBBLE
Catalog number: 20580
Epoch time:      11180.74813243
Element set:     789
Inclination:      028.4727 deg
RA of node:       294.4017 deg
Eccentricity:    0.0003480
Arg of perigee:   252.1362 deg
Mean anomaly:     107.8827 deg
Mean motion:   15.01409579 rev/day
Decay rate:       7.69e-06 rev/day^2
Epoch rev:           96154
Checksum:              305

Satellite: ISS
Catalog number: 25544
Epoch time:      11182.05639476
Element set:     631
Inclination:      051.6422 deg
RA of node:       090.7842 deg
Eccentricity:    0.0007882
Arg of perigee:   292.9233 deg
Mean anomaly:     206.8702 deg
Mean motion:   15.60874739 rev/day
Decay rate:     -3.910e-05 rev/day^2
Epoch rev:           72307
Checksum:              304

Satellite: CO-58
Catalog number: 28895
Epoch time:      11180.67453277
Element set:    0911
Inclination:      097.9660 deg
RA of node:       056.5812 deg
Eccentricity:    0.0017788
Arg of perigee:   178.2449 deg
Mean anomaly:     181.8826 deg
Mean motion:   14.60122839 rev/day
Decay rate:        9.1e-07 rev/day^2
Epoch rev:           30206
Checksum:              340

Satellite: FALCON
Catalog number: 30776
Epoch time:      11173.55069084
Element set:     112
Inclination:      035.4349 deg
RA of node:       314.3657 deg
Eccentricity:    0.0000316
Arg of perigee:   059.4625 deg
Mean anomaly:     300.6144 deg
Mean motion:   15.04692566 rev/day
Decay rate:      1.314e-05 rev/day^2
Epoch rev:           23585
Checksum:              277

Satellite: MAST
Catalog number: 31126
Epoch time:      11173.54201737
Element set:     190
Inclination:      097.8945 deg
RA of node:       200.4658 deg
Eccentricity:    0.0095185
Arg of perigee:   153.4065 deg
Mean anomaly:     207.2049 deg
Mean motion:   14.53760317 rev/day
Decay rate:       3.30e-06 rev/day^2
Epoch rev:           22186
Checksum:              279

Satellite: CAPE1
Catalog number: 31130
Epoch time:      11180.62918386
Element set:    0212
Inclination:      097.8983 deg
RA of node:       203.9015 deg
Eccentricity:    0.0102980
Arg of perigee:   142.2882 deg
Mean anomaly:     218.5572 deg
Mean motion:   14.52411290 rev/day
Decay rate:       2.06e-06 rev/day^2
Epoch rev:           22244
Checksum:              269

Satellite: COMPASS
Catalog number: 32787
Epoch time:      11180.76519384
Element set:    0025
Inclination:      097.8474 deg
RA of node:       244.3485 deg
Eccentricity:    0.0016455
Arg of perigee:   132.7005 deg
Mean anomaly:     227.5546 deg
Mean motion:   14.82470036 rev/day
Decay rate:       7.40e-06 rev/day^2
Epoch rev:           17142
Checksum:              297

Satellite: AAUSAT2
Catalog number: 32788
Epoch time:      11173.64105533
Element set:       9
Inclination:      097.8470 deg
RA of node:       237.5825 deg
Eccentricity:    0.0015696
Arg of perigee:   155.2374 deg
Mean anomaly:     204.9533 deg
Mean motion:   14.82645614 rev/day
Decay rate:       9.01e-06 rev/day^2
Epoch rev:           17038
Checksum:              305

Satellite: DO-64
Catalog number: 32789
Epoch time:      11180.73282105
Element set:    0031
Inclination:      097.8571 deg
RA of node:       245.5721 deg
Eccentricity:    0.0016271
Arg of perigee:   130.8922 deg
Mean anomaly:     229.3709 deg
Mean motion:   14.83146593 rev/day
Decay rate:       9.31e-06 rev/day^2
Epoch rev:           17144
Checksum:              303

